Date_and_time,latitude,longitude,wind_speed,RelWindDirFrom,WindDirFrom,air_pressure,air_temperature,relative_humidity,Temp,platform_speed_wrt_ground,air_pressure_at_mean_sea_level,platform_orientation
2019-05-03 23:50,50.6304333333333,-96.9807866666667,7.6,10.4,138,982.30,5.3,100,5.47,0.0,1009.43,90.0
2019-05-04 00:00,50.6304366666667,-96.98079,6.2,9.7,135,982.28,6.1,100,5.48,0.0,1009.38,252.3
2019-05-04 00:10,50.6304483333333,-96.9807716666667,8.9,11.0,148,982.07,5.6,100,5.46,0.0,1009.23,252.3
2019-05-04 00:20,50.6304433333333,-96.98079,11.2,18.4,148,981.82,6.9,93,5.51,0.0,1008.89,252.3
2019-05-04 00:30,50.63044,-96.9807916666667,9.6,12.6,147,981.71,8.2,87,5.53,0.0,1008.66,252.3
2019-05-04 00:40,50.6304433333333,-96.9807866666667,10.4,12.8,138,981.51,8.2,84,5.55,0.0,1008.49,252.3
2019-05-04 00:50,50.63042,-96.9807883333333,7.3,11.8,138,981.72,7.6,88,5.55,0.0,1008.74,252.3
2019-05-04 01:00,50.6304333333333,-96.9807833333333,5.4,8.6,144,981.88,5.6,99,5.58,0.0,1008.95,229.4
2019-05-04 01:10,50.6304333333333,-96.9807816666667,10.8,13.8,142,981.56,5.6,98,5.56,0.0,1008.66,229.4
2019-05-04 01:20,50.6304366666667,-96.98078,11.6,14.2,151,981.42,6.9,92,5.54,0.0,1008.51,229.4
2019-05-04 01:30,50.6304483333333,-96.98078,10.8,13.3,160,981.31,7.0,94,5.48,0.0,1008.38,229.4
2019-05-04 01:40,50.630445,-96.9807733333333,10.2,11.6,160,981.28,7.0,99,5.42,0.0,1008.34,229.4
2019-05-04 01:50,50.6304383333333,-96.9807783333333,10.0,11.3,157,981.16,5.8,100,5.53,0.0,1008.23,229.4
2019-05-04 02:00,50.6304333333333,-96.9807733333333,10.2,11.1,162,981.05,5.6,100,5.65,0.0,1008.16,221.3
2019-05-04 02:10,50.6304266666667,-96.98072,9.6,10.7,159,980.97,5.2,100,5.68,0.0,1008.03,221.3
2019-05-04 02:20,50.6304216666667,-96.9807566666667,8.9,10.5,158,980.87,4.5,100,5.71,0.0,1007.90,221.3
2019-05-04 02:30,50.6304216666667,-96.9807683333333,6.8,9.1,149,980.92,4.0,100,5.70,0.0,1007.97,221.3
2019-05-04 02:40,50.63042,-96.9807783333333,6.9,10.5,143,981.03,3.5,100,5.67,0.0,1008.14,221.3
2019-05-04 02:50,50.6304266666667,-96.9807733333333,6.4,9.9,155,980.99,3.0,101,5.70,0.0,1008.23,221.3
2019-05-04 03:00,50.6304183333333,-96.9807733333333,7.4,10.0,157,980.84,2.7,101,5.74,0.0,1008.08,152.6
2019-05-04 03:10,50.63043,-96.98077,7.8,9.3,148,980.69,2.8,101,5.71,0.0,1007.87,152.6
2019-05-04 03:20,50.6304366666667,-96.9807683333333,10.0,12.5,150,980.59,3.0,101,5.69,0.0,1007.74,152.6
2019-05-04 03:30,50.6304383333333,-96.9807716666667,10.9,12.6,147,980.42,3.6,101,5.67,0.0,1007.54,152.6
2019-05-04 03:40,50.630445,-96.9807883333333,9.9,12.6,157,980.26,3.7,101,5.62,0.0,1007.43,152.6
2019-05-04 03:50,50.6304433333333,-96.9807766666667,11.6,13.7,151,979.82,3.6,101,5.57,0.0,1007.00,152.6
2019-05-04 04:00,50.6304466666667,-96.9807783333333,11.5,13.4,147,979.56,3.7,101,5.53,0.0,1006.74,18.9
2019-05-04 04:10,50.630445,-96.980775,12.2,14.7,144,979.24,3.7,101,5.49,0.0,1006.44,18.9
2019-05-04 04:20,50.6304416666667,-96.980775,11.8,14.4,148,978.95,4.1,101,5.45,0.0,1006.16,18.9
2019-05-04 04:30,50.6304416666667,-96.9807733333333,9.0,11.5,157,978.85,3.5,102,5.40,0.0,1006.11,18.9
2019-05-04 04:40,50.6304466666667,-96.9807716666667,9.4,11.5,153,978.67,3.5,102,5.36,0.0,1005.95,18.9
2019-05-04 04:50,50.6304466666667,-96.98077,8.9,10.8,159,978.54,3.5,101,5.35,0.0,1005.82,18.9
2019-05-04 05:00,50.6304466666667,-96.9807716666667,8.9,11.6,157,978.30,3.6,101,5.36,0.0,1005.57,18.9
2019-05-04 05:10,50.6304483333333,-96.9807716666667,10.9,14.0,159,978.17,3.9,101,5.36,0.0,1005.41,18.9
2019-05-04 05:20,50.6304483333333,-96.9807733333333,12.8,16.0,165,978.19,4.5,101,5.33,0.0,1005.37,18.9
2019-05-04 05:30,50.6304466666667,-96.980775,11.3,14.9,176,978.50,5.7,100,5.35,0.0,1005.63,18.9
2019-05-04 05:40,50.630435,-96.9807666666667,10.0,15.0,197,978.88,7.0,95,5.35,0.0,1005.95,18.9
2019-05-04 05:50,50.630435,-96.98078,12.6,19.4,197,978.58,8.4,81,5.35,0.0,1005.58,18.9
2019-05-04 06:00,50.630445,-96.980785,17.4,26.7,187,978.34,7.7,95,5.37,0.0,1005.36,339.9
2019-05-04 06:10,50.6304233333333,-96.9807583333333,13.3,17.7,181,978.00,6.9,100,5.38,0.0,1005.04,339.9
2019-05-04 06:20,50.63043,-96.9807683333333,13.4,17.7,186,977.82,6.8,100,5.37,0.0,1004.88,339.9
2019-05-04 06:30,50.6304316666667,-96.9807666666667,14.8,23.2,198,977.86,7.2,101,5.36,0.0,1004.90,339.9
2019-05-04 06:40,50.630435,-96.9807666666667,17.1,26.3,199,977.79,7.7,101,5.36,0.0,1004.81,339.9
2019-05-04 06:50,50.630435,-96.9807683333333,15.5,21.1,190,977.40,7.6,100,5.41,0.0,1004.41,339.9
2019-05-04 07:00,50.630435,-96.9807683333333,16.6,21.3,182,977.01,7.4,101,5.44,0.0,1004.00,130.6
2019-05-04 07:10,50.6304366666667,-96.9807683333333,14.5,18.7,183,976.96,7.2,101,5.44,0.0,1003.93,130.6
2019-05-04 07:20,50.6304366666667,-96.9807683333333,14.5,21.1,183,976.88,7.1,101,5.44,0.0,1003.79,130.6
2019-05-04 07:30,50.6304433333333,-96.980755,14.5,20.1,178,976.55,7.2,100,5.44,0.0,1003.39,130.6
2019-05-04 07:40,50.63044,-96.98076,12.7,15.3,172,976.30,6.9,100,5.45,0.0,1003.07,130.6
2019-05-04 07:50,50.630445,-96.98076,11.4,13.7,171,976.19,6.6,101,5.44,0.0,1003.01,130.6
2019-05-04 08:00,50.6304433333333,-96.980765,11.2,13.2,176,976.11,6.4,101,5.42,0.0,1002.98,167.4
2019-05-04 08:10,50.6304433333333,-96.980765,9.5,12.8,184,976.16,6.5,101,5.41,0.0,1003.03,167.4
2019-05-04 08:20,50.63044,-96.9807633333333,9.9,13.4,188,976.19,6.9,100,5.39,0.0,1003.02,167.4
2019-05-04 08:30,50.63044,-96.9807633333333,11.3,16.4,196,976.21,7.1,100,5.36,0.0,1003.01,167.4
2019-05-04 08:40,50.63044,-96.9807633333333,11.4,19.2,211,976.40,7.4,100,5.32,0.0,1003.19,167.4
2019-05-04 08:50,50.6304433333333,-96.9807533333333,14.8,23.7,255,976.80,7.6,97,5.29,0.0,1003.61,167.4
2019-05-04 09:00,50.630475,-96.9807633333333,12.6,22.5,262,976.96,6.9,90,5.36,0.0,1003.82,14.5
2019-05-04 09:10,50.6304616666667,-96.9807583333333,12.3,19.4,269,977.04,6.3,87,5.43,0.0,1003.93,14.5
2019-05-04 09:20,50.63046,-96.9807566666667,9.8,21.2,257,977.25,5.9,91,5.52,0.0,1004.15,14.5
2019-05-04 09:30,50.6304566666667,-96.980755,14.5,21.5,256,977.37,5.7,85,5.62,0.0,1004.31,14.5
2019-05-04 09:40,50.6304383333333,-96.980765,10.5,18.0,255,977.17,5.4,82,5.70,0.0,1004.13,14.5
2019-05-04 09:50,50.630445,-96.9807683333333,8.4,15.8,251,977.08,5.0,82,5.69,0.0,1004.07,14.5
2019-05-04 10:00,50.63043,-96.980775,9.4,19.1,242,977.10,4.7,83,5.66,0.0,1004.10,194.5
2019-05-04 10:10,50.6304433333333,-96.9807616666667,12.1,18.0,243,977.26,4.7,75,5.64,0.0,1004.24,194.5
2019-05-04 10:20,50.6304433333333,-96.9807616666667,13.1,19.0,250,977.36,4.5,70,5.61,0.0,1004.34,194.5
2019-05-04 10:30,50.630445,-96.9807633333333,14.6,21.6,252,977.58,4.1,66,5.58,0.0,1004.58,194.5
2019-05-04 10:40,50.6304433333333,-96.9807616666667,14.8,30.0,253,977.79,3.7,66,5.55,0.0,1004.80,194.5
2019-05-04 10:50,50.6304416666667,-96.98076,13.3,23.9,254,977.87,3.4,68,5.52,0.0,1004.94,194.5
2019-05-04 11:00,50.6304416666667,-96.98076,11.9,18.3,251,977.89,3.1,70,5.51,0.0,1004.99,90.0
2019-05-04 11:10,50.6304416666667,-96.9807616666667,11.6,18.2,243,977.82,2.9,71,5.50,0.0,1004.96,90.0
2019-05-04 11:20,50.6304733333333,-96.9807683333333,11.7,21.4,248,977.73,2.9,71,5.49,0.0,1004.87,90.0
2019-05-04 11:30,50.6304566666667,-96.9807616666667,11.7,17.1,245,977.77,3.0,70,5.47,0.0,1004.92,90.0
2019-05-04 11:40,50.6304316666667,-96.9807616666667,12.2,22.5,244,977.81,3.1,69,5.47,0.0,1004.98,90.0
2019-05-04 11:50,50.6304383333333,-96.9807666666667,14.1,22.7,247,977.78,3.3,67,5.42,0.0,1004.96,90.0
2019-05-04 12:00,50.63044,-96.98077,14.3,25.4,248,977.72,3.4,65,5.33,0.0,1004.89,161.1
2019-05-04 12:10,50.6304616666667,-96.9807966666667,15.2,23.3,246,977.78,3.5,64,5.28,0.0,1004.96,161.1
2019-05-04 12:20,50.6304416666667,-96.980785,15.2,26.2,248,977.86,3.6,64,5.20,0.0,1005.05,161.1
2019-05-04 12:30,50.630445,-96.9807833333333,15.6,26.2,247,977.99,3.7,63,5.22,0.0,1005.20,161.1
2019-05-04 12:40,50.6304483333333,-96.98078,14.9,23.0,245,978.18,3.8,64,5.21,0.0,1005.41,161.1
2019-05-04 12:50,50.63045,-96.9807783333333,17.3,27.3,241,978.42,3.6,65,5.23,0.0,1005.68,161.1
2019-05-04 13:00,50.63045,-96.980775,14.8,23.4,245,978.55,3.6,66,5.25,0.0,1005.82,360.0
2019-05-04 13:10,50.6304483333333,-96.980775,14.6,23.5,242,978.77,3.7,66,5.21,0.0,1006.04,360.0
2019-05-04 13:20,50.6304466666667,-96.980775,17.2,27.2,249,978.87,3.8,66,5.15,0.0,1006.14,360.0
2019-05-04 13:30,50.6304466666667,-96.9807733333333,15.9,25.8,247,979.06,3.9,66,5.15,0.0,1006.32,360.0
2019-05-04 13:40,50.630445,-96.9807733333333,16.1,24.0,248,979.26,3.9,67,5.15,0.0,1006.52,360.0
2019-05-04 13:50,50.63044,-96.980765,16.3,25.9,248,979.44,4.0,68,5.13,0.0,1006.69,360.0
2019-05-04 14:00,50.6304433333333,-96.98077,18.2,28.2,251,979.56,4.2,68,5.13,0.0,1006.80,270.0
2019-05-04 14:10,50.63044,-96.9807683333333,16.0,24.5,250,979.65,4.0,73,5.14,0.0,1006.89,270.0
2019-05-04 14:20,50.6304416666667,-96.9807683333333,15.6,21.8,255,979.61,4.2,71,5.17,0.0,1006.84,270.0
2019-05-04 14:30,50.6303916666667,-96.980755,17.1,26.2,257,979.57,4.5,72,5.17,0.0,1006.79,270.0
2019-05-04 14:40,50.6304233333333,-96.9807733333333,16.1,25.7,268,979.50,4.6,70,5.19,0.0,1006.72,270.0
2019-05-04 14:50,50.6304233333333,-96.98074,16.1,25.8,272,979.54,5.1,65,5.25,0.0,1006.73,270.0
2019-05-04 15:00,50.6304316666667,-96.980755,14.8,23.0,273,979.61,5.1,65,5.33,0.0,1006.80,165.5
2019-05-04 15:10,50.6304333333333,-96.98076,15.2,23.9,261,979.89,5.0,67,5.38,0.0,1007.08,165.5
2019-05-04 15:20,50.6304333333333,-96.98076,13.3,22.9,263,979.99,5.5,64,5.40,0.0,1007.16,165.5
2019-05-04 15:30,50.630425,-96.9807633333333,15.8,25.3,272,979.91,5.6,58,5.39,0.0,1007.07,165.5
2019-05-04 15:40,50.630435,-96.9807666666667,15.0,24.5,268,980.18,5.8,57,5.40,0.0,1007.33,165.5
2019-05-04 15:50,50.6304333333333,-96.980765,15.3,27.9,280,980.14,6.1,54,5.37,0.0,1007.27,165.5
2019-05-04 16:00,50.630435,-96.9807683333333,13.4,22.8,264,980.52,5.8,57,5.34,0.0,1007.68,360.0
2019-05-04 16:10,50.6304366666667,-96.980775,14.7,25.5,255,980.63,5.9,57,5.37,0.0,1007.78,360.0
2019-05-04 16:20,50.6304383333333,-96.9807783333333,14.9,27.8,264,980.53,6.1,54,5.52,0.0,1007.65,360.0
2019-05-04 16:30,50.6304383333333,-96.9807833333333,14.7,24.3,266,980.64,6.5,49,5.57,0.0,1007.74,360.0
2019-05-04 16:40,50.6304366666667,-96.9807766666667,16.2,25.7,269,980.48,6.6,47,5.58,0.0,1007.56,360.0
2019-05-04 16:50,50.63044,-96.9807766666667,17.1,25.6,257,980.61,7.0,44,5.58,0.0,1007.67,360.0
2019-05-04 17:00,50.6304366666667,-96.98077,15.7,24.9,263,980.57,7.1,46,5.60,0.0,1007.62,142.0
2019-05-04 17:10,50.6304366666667,-96.9807666666667,14.3,25.1,258,980.75,7.1,46,5.55,0.0,1007.78,142.0
2019-05-04 17:20,50.630435,-96.9807666666667,15.0,23.8,255,980.65,7.4,43,5.53,0.0,1007.66,142.0
2019-05-04 17:30,50.6304283333333,-96.9807566666667,16.1,25.6,245,980.80,7.3,45,5.32,0.0,1007.81,142.0
2019-05-04 17:40,50.6304366666667,-96.9807633333333,15.9,23.8,256,980.74,7.6,44,5.53,0.0,1007.72,142.0
2019-05-04 17:50,50.630435,-96.9807683333333,14.7,23.3,259,980.69,7.9,40,5.69,0.0,1007.66,142.0
2019-05-04 18:00,50.6304333333333,-96.9807716666667,14.9,23.5,265,980.58,8.2,37,5.81,0.0,1007.53,270.0
2019-05-04 18:10,50.6304333333333,-96.9807766666667,15.3,28.7,267,980.54,8.4,37,5.85,0.0,1007.48,270.0
2019-05-04 18:20,50.6304333333333,-96.980775,15.0,27.5,283,980.42,8.6,34,5.85,0.0,1007.32,270.0
2019-05-04 18:30,50.630435,-96.980775,14.9,26.7,267,980.61,8.6,35,5.79,0.0,1007.51,270.0
2019-05-04 18:40,50.630435,-96.9807733333333,13.4,24.9,261,980.65,9.1,34,5.76,0.0,1007.52,270.0
2019-05-04 18:50,50.630435,-96.9807733333333,14.9,24.3,257,980.70,9.1,33,5.94,0.0,1007.56,270.0
2019-05-04 19:00,50.6304366666667,-96.9807733333333,15.4,24.9,269,980.52,9.1,32,5.96,0.0,1007.38,270.0
2019-05-04 19:10,50.6304366666667,-96.9807716666667,15.7,23.3,275,980.35,9.3,30,5.93,0.0,1007.18,270.0
2019-05-04 19:20,50.6304366666667,-96.9807716666667,11.5,19.3,265,980.51,9.7,31,5.99,0.0,1007.31,270.0
2019-05-04 19:30,50.6304366666667,-96.98077,12.8,22.8,249,980.65,9.7,32,6.13,0.0,1007.45,270.0
2019-05-04 19:40,50.6304366666667,-96.9807683333333,12.4,23.6,262,980.51,10.0,31,6.20,0.0,1007.27,270.0
2019-05-04 19:50,50.6304366666667,-96.9807683333333,12.1,20.3,253,980.57,10.2,31,6.25,0.0,1007.32,270.0
2019-05-04 20:00,50.6304133333333,-96.9807533333333,14.8,22.8,277,980.28,10.2,29,6.28,0.0,1007.01,147.9
2019-05-04 20:10,50.6304033333333,-96.9807416666667,13.3,20.4,255,980.67,10.3,28,6.30,0.0,1007.39,147.9
2019-05-04 20:20,50.6304316666667,-96.98077,12.7,26.4,265,980.50,10.6,28,6.34,0.0,1007.20,147.9
2019-05-04 20:30,50.630435,-96.980765,12.5,20.1,262,980.54,10.7,27,6.37,0.0,1007.22,147.9
2019-05-04 20:40,50.6304383333333,-96.9807666666667,12.5,22.7,255,980.66,10.9,28,6.38,0.0,1007.33,147.9
2019-05-04 20:50,50.6304383333333,-96.9807666666667,14.5,25.8,247,980.66,10.7,29,6.40,0.0,1007.34,147.9
2019-05-04 21:00,50.63044,-96.98077,12.0,22.7,257,980.48,10.4,29,6.47,0.0,1007.17,14.5
2019-05-04 21:10,50.63044,-96.9807716666667,14.4,26.8,249,980.54,10.7,29,6.46,0.0,1007.19,14.5
2019-05-04 21:20,50.6304266666667,-96.9807883333333,14.6,23.2,253,980.57,10.8,28,6.45,0.0,1007.22,14.5
2019-05-04 21:30,50.630425,-96.9807416666667,13.7,23.5,236,980.61,10.7,29,6.45,0.0,1007.24,14.5
2019-05-04 21:40,50.6304283333333,-96.980745,13.3,19.7,250,980.55,10.4,29,6.42,0.0,1007.19,14.5
2019-05-04 21:50,50.6304216666667,-96.98076,11.3,19.8,280,980.32,10.5,27,6.45,0.0,1006.95,14.5
2019-05-04 22:00,50.6304333333333,-96.9807733333333,10.9,18.6,275,980.38,10.6,27,6.44,0.0,1007.01,142.0
2019-05-04 22:10,50.6304333333333,-96.9807733333333,10.9,18.5,259,980.48,11.0,25,6.45,0.0,1007.07,142.0
2019-05-04 22:20,50.630435,-96.9807716666667,13.2,22.5,258,980.52,10.6,25,6.51,0.0,1007.12,142.0
2019-05-04 22:30,50.630435,-96.98077,10.1,16.6,263,980.54,10.5,25,6.59,0.0,1007.13,142.0
2019-05-04 22:40,50.630435,-96.9807683333333,11.8,18.9,262,980.59,10.7,24,6.62,0.0,1007.19,142.0
2019-05-04 22:50,50.6304366666667,-96.98077,11.4,17.9,274,980.51,10.8,24,6.62,0.0,1007.13,142.0
2019-05-04 23:00,50.630415,-96.9807683333333,12.1,19.2,274,980.55,10.7,24,6.62,0.0,1007.15,270.0
2019-05-04 23:10,50.6304383333333,-96.9807683333333,10.9,16.1,291,980.50,10.6,25,6.63,0.0,1007.10,270.0
2019-05-04 23:20,50.6304283333333,-96.9807616666667,9.9,14.9,279,980.51,10.7,24,6.65,0.0,1007.11,270.0
2019-05-04 23:30,50.6304266666667,-96.9807616666667,9.9,19.2,280,980.44,11.2,24,6.66,0.0,1007.03,270.0
